[[{"header":{"parameterUnit":"m.s-1","parameterCategory":1,"la1":30.2991,"la2":30.254,"lo1":-89.0895,"lo2":-89.0444,"dy":0.0017,"dx":0.0017,"nx":28,"ny":28,"refTime":"2025-06-22T09:00:00:Z","depth":0,"parameterNumber":2,"parameterNumberName":"U-component_of_WINDS"},"data":[0,0,0,0,0,0,0,0,0,0,0,0,0,0,0,0,0,0,0,0,0,0,0,0,0,0,0,0,0,0,0,0,0,0,0,0,0,0,0,0,0,0,0,0,0,0,0,0,0,0,0,0,0,0,0,0,0,0,-0.8268,-0.8267,0,-0.8219,-0.8218,-0.8218,-0.8162,-0.8162,-0.8161,-0.816,-0.811,-0.811,-0.8109,0,0,0,0,0,0,0,0,0,0,0,0,0,-0.8313,-0.8313,-0.8268,-0.8267,-0.8267,-0.8219,-0.8218,-0.8218,-0.8163,-0.8162,-0.816,-0.816,-0.8111,-0.811,-0.8109,0,0,0,0,0,0,0,0,0,0,0,0,0,-0.8282,-0.8312,-0.8268,-0.8233,-0.823,-0.8219,-0.8218,-0.8218,-0.8163,-0.8161,-0.816,-0.8159,-0.8111,-0.811,-0.8109,-0.8129,0,0,-0.8107,-0.8106,0,0,0,0,0,0,0,0,-0.8284,-0.828,-0.8239,-0.8236,-0.8232,-0.8195,-0.8216,-0.8188,-0.8163,-0.8188,-0.816,-0.8158,-0.814,-0.8136,-0.813,-0.8127,-0.8125,-0.8107,-0.8106,-0.8106,-0.8106,0,0,0,0,0,0,0,-0.8286,-0.8282,-0.8248,-0.8238,-0.8234,-0.822,-0.8214,-0.8211,-0.8172,-0.8186,-0.8182,-0.8177,-0.8137,-0.8131,-0.8128,-0.8124,-0.8107,-0.8106,-0.8105,-0.8105,-0.8135,-0.8136,0,0,0,0,0,0,-0.8293,-0.8284,-0.825,-0.8247,-0.8255,-0.822,-0.8214,-0.8208,-0.8171,-0.8165,-0.8178,-0.8174,-0.8133,-0.813,-0.8127,-0.8148,-0.8106,-0.8105,-0.8105,-0.8133,-0.8135,-0.8136,0,0,0,0,0,0,-0.8295,-0.8291,-0.8252,-0.8264,-0.8258,-0.8221,-0.8215,-0.8208,-0.8201,-0.8165,-0.8158,-0.8178,-0.8132,-0.8128,-0.8129,-0.8145,-0.8105,-0.8104,-0.8132,-0.8134,-0.8136,-0.819,0,0,0,0,0,0,-0.8296,-0.8292,-0.8299,-0.8265,-0.8258,-0.8255,-0.8216,-0.8208,-0.82,-0.8195,-0.8164,-0.8158,-0.8131,-0.813,-0.8128,-0.8143,-0.8103,-0.813,-0.8133,-0.8135,-0.8187,-0.8194,-0.82,0,0,0,0,0,-0.8298,-0.8316,-0.8299,-0.8296,-0.8266,-0.8256,-0.8252,-0.8221,-0.8202,-0.8209,-0.8185,-0.8159,-0.8144,-0.8131,-0.8128,-0.8143,-0.8129,-0.8132,-0.8135,-0.8184,-0.8192,-0.82,0,0,0,0,0,0,-0.8353,-0.8311,-0.8292,-0.83,-0.8282,-0.8247,-0.8255,-0.8231,-0.8218,-0.8214,-0.8175,-0.8169,-0.8175,-0.8159,-0.8145,-0.8161,-0.8132,-0.8135,-0.8171,-0.8179,-0.8185,-0.8189,-0.8103,0,0,0,0,0,-0.8366,-0.8361,-0.8325,-0.8335,-0.8327,-0.8293,-0.8287,-0.8264,-0.8245,-0.8237,-0.8214,-0.8195,-0.8186,-0.8182,-0.8171,-0.8184,-0.8177,-0.8193,-0.8199,-0.8205,-0.8208,-0.8214,-0.8221,-0.8146,-0.8146,-0.8146,0,0,-0.8393,-0.8369,-0.8369,-0.8346,-0.8329,-0.8326,-0.8287,-0.8284,-0.8281,-0.8236,-0.8236,-0.8219,-0.8196,-0.8203,-0.8205,-0.819,-0.8227,-0.8209,-0.8213,-0.8213,-0.8217,-0.8224,-0.8231,-0.8148,-0.8147,-0.8147,0,0,-0.844,-0.8421,-0.8428,-0.8412,-0.8388,-0.8365,-0.8367,-0.8335,-0.8322,-0.8321,-0.8287,-0.8283,-0.8268,-0.8254,-0.8244,-0.8286,-0.8261,-0.8283,-0.8317,-0.8324,-0.833,-0.8335,-0.835,-0.8356,-0.8286,-0.8286,-0.8286,0,-0.8476,-0.8469,-0.8435,-0.8435,-0.8426,-0.8384,-0.8391,-0.8378,-0.8351,-0.8346,-0.833,-0.8311,-0.8292,-0.8296,-0.8306,-0.8299,-0.83,-0.8287,-0.8331,-0.8336,-0.834,-0.8355,-0.836,-0.8289,-0.8289,-0.8289,-0.8288,0,-0.8516,-0.8511,-0.852,-0.8495,-0.8487,-0.8491,-0.8457,-0.8453,-0.8431,-0.8409,-0.8409,-0.8386,-0.837,-0.8369,-0.8347,-0.8369,-0.8361,-0.8339,-0.831,-0.8351,-0.8364,-0.8369,-0.8293,-0.8292,-0.8291,-0.8291,0,0,-0.8597,-0.8553,-0.8557,-0.8545,-0.8515,-0.8511,-0.8513,-0.8497,-0.8495,-0.8478,-0.8478,-0.8467,-0.8446,-0.8436,-0.8412,-0.8417,-0.8452,-0.8394,-0.8393,-0.8406,-0.8476,-0.8493,-0.85,-0.8435,-0.8436,-0.8437,-0.8478,0,-0.8639,-0.8639,-0.8608,-0.8617,-0.8613,-0.8573,-0.8575,-0.8557,-0.8537,-0.853,-0.8508,-0.8501,-0.8473,-0.8467,-0.847,-0.8447,-0.8466,-0.8444,-0.8436,-0.8436,-0.8444,-0.8507,-0.8525,-0.8565,-0.8482,-0.8483,-0.8484,0,-0.8689,-0.8675,-0.8683,-0.8653,-0.865,-0.8652,-0.8635,-0.8629,-0.8608,-0.8593,-0.8581,-0.8554,-0.8554,-0.8526,-0.8525,-0.8511,-0.8505,-0.8494,-0.8494,-0.8493,-0.8463,-0.8508,-0.8577,-0.8584,-0.8491,-0.8491,-0.849,0,-0.8748,-0.8731,-0.8734,-0.8725,-0.869,-0.8692,-0.8677,-0.8654,-0.8647,-0.8633,-0.8628,-0.8614,-0.8606,-0.8596,-0.8566,-0.8548,-0.8569,-0.8538,-0.8557,-0.8558,-0.8563,-0.8564,-0.8634,-0.8559,-0.8559,-0.8559,-0.8559,0,-0.8799,-0.8806,-0.876,-0.8762,-0.8769,-0.8733,-0.874,-0.8722,-0.8702,-0.87,-0.8664,-0.8663,-0.8623,-0.8617,-0.8594,-0.8597,-0.8594,-0.8582,-0.8576,-0.8585,-0.8587,-0.8582,-0.8579,-0.856,-0.856,-0.856,-0.8559,0,-0.8867,-0.8836,-0.8837,-0.8803,-0.8795,-0.8801,-0.8772,-0.8773,-0.875,-0.8748,-0.8745,-0.8711,-0.8702,-0.8671,-0.8654,-0.8638,-0.8649,-0.8637,-0.8657,-0.8653,-0.8673,-0.8672,-0.8743,-0.8751,-0.8671,-0.8672,-0.8672,0,-0.8902,-0.8906,-0.8873,-0.8869,-0.8855,-0.8849,-0.8842,-0.8806,-0.88,-0.8776,-0.878,-0.8768,-0.8757,-0.8745,-0.8719,-0.8706,-0.8693,-0.8719,-0.8691,-0.8701,-0.8695,-0.8695,-0.8696,-0.8725,-0.8726,-0.8727,-0.8728,0,-0.8968,-0.8952,-0.8943,-0.8928,-0.892,-0.8907,-0.8891,-0.889,-0.8851,-0.8845,-0.8836,-0.8828,-0.8811,-0.88,-0.8783,-0.8768,-0.8742,-0.8737,-0.8741,-0.8751,-0.8763,-0.8757,-0.8674,-0.8736,-0.8735,-0.8734,-0.8734,-0.8734,-0.9021,-0.9023,-0.9,-0.899,-0.8975,-0.8961,-0.896,-0.8937,-0.8929,-0.8913,-0.8892,-0.8886,-0.8864,-0.8838,-0.8825,-0.882,-0.8805,-0.881,-0.8812,-0.8814,-0.8819,-0.8763,-0.8816,-0.8816,-0.8816,-0.8816,-0.8815,0,-0.9085,-0.9068,-0.906,-0.9039,-0.9032,-0.9007,-0.8989,-0.8985,-0.8979,-0.8961,-0.8951,-0.894,-0.893,-0.8902,-0.8889,-0.889,-0.8877,-0.8888,-0.8888,-0.8885,-0.8832,-0.8831,-0.8898,-0.8898,-0.8898,-0.8898,-0.8898,-0.8898,-0.9118,-0.9121,-0.9102,-0.9097,-0.908,-0.9073,-0.9065,-0.9052,-0.9037,-0.9027,-0.9018,-0.9,-0.8978,-0.8963,-0.8952,-0.8944,-0.8941,-0.8956,-0.8944,-0.8896,-0.8888,-0.8881,-0.8879,-0.8955,-0.8955,-0.8997,-0.8997,-0.8997]},{"header":{"parameterUnit":"m.s-1","parameterCategory":1,"la1":30.2991,"la2":30.254,"lo1":-89.0895,"lo2":-89.0444,"dy":0.0017,"dx":0.0017,"nx":28,"ny":28,"refTime":"2025-06-22T09:00:00:Z","depth":0,"parameterNumber":3,"parameterNumberName":"V-component_of_WINDS"},"data":[0,0,0,0,0,0,0,0,0,0,0,0,0,0,0,0,0,0,0,0,0,0,0,0,0,0,0,0,0,0,0,0,0,0,0,0,0,0,0,0,0,0,0,0,0,0,0,0,0,0,0,0,0,0,0,0,0,0,2.3381,2.3381,0,2.3388,2.3388,2.3389,2.3351,2.335,2.3348,2.3347,2.3354,2.3355,2.3357,0,0,0,0,0,0,0,0,0,0,0,0,0,2.3332,2.3333,2.3381,2.3381,2.3381,2.3388,2.3388,2.3389,2.3351,2.3349,2.3348,2.3347,2.3354,2.3355,2.3357,0,0,0,0,0,0,0,0,0,0,0,0,0,2.3348,2.3333,2.3381,2.3363,2.3361,2.3388,2.3388,2.3389,2.3351,2.3349,2.3348,2.3346,2.3353,2.3355,2.3357,2.3401,0,0,2.3362,2.3363,0,0,0,0,0,0,0,0,2.3347,2.3349,2.3365,2.3364,2.3363,2.3367,2.3374,2.3393,2.3351,2.3355,2.3347,2.3345,2.336,2.3361,2.3366,2.3401,2.3401,2.3363,2.3364,2.3364,2.3365,0,0,0,0,0,0,0,2.3346,2.3349,2.3384,2.3366,2.3364,2.3354,2.3355,2.3377,2.3366,2.3355,2.3352,2.3353,2.3359,2.3364,2.3366,2.3402,2.3363,2.3364,2.3365,2.3366,2.3472,2.3474,0,0,0,0,0,0,2.3347,2.3348,2.3383,2.3384,2.335,2.3356,2.3357,2.3367,2.3366,2.3364,2.3355,2.3352,2.3362,2.3364,2.3366,2.3416,2.3364,2.3366,2.3367,2.3471,2.3473,2.3475,0,0,0,0,0,0,2.3346,2.3351,2.3383,2.3365,2.3369,2.3359,2.3371,2.3368,2.3374,2.3366,2.3364,2.3363,2.3361,2.3363,2.3392,2.3416,2.3367,2.3369,2.3469,2.3471,2.3474,2.3518,0,0,0,0,0,0,2.3345,2.3351,2.3367,2.3366,2.337,2.341,2.3372,2.3369,2.3377,2.3373,2.3373,2.3371,2.336,2.339,2.3394,2.3417,2.337,2.3466,2.347,2.3473,2.3514,2.3522,2.3528,0,0,0,0,0,2.3343,2.338,2.3368,2.3373,2.3391,2.3411,2.3413,2.3399,2.3379,2.3396,2.3391,2.3371,2.3413,2.3393,2.3398,2.3422,2.3465,2.3469,2.3473,2.3511,2.352,2.3528,0,0,0,0,0,0,2.3384,2.3379,2.3367,2.3404,2.3408,2.3405,2.3425,2.341,2.342,2.3415,2.3398,2.3398,2.343,2.3429,2.3407,2.3464,2.3435,2.344,2.3463,2.3472,2.3478,2.3477,2.3371,0,0,0,0,0,2.3397,2.3414,2.3409,2.3442,2.3445,2.3435,2.3443,2.3432,2.3436,2.3438,2.3435,2.3439,2.3453,2.3463,2.3475,2.3515,2.3513,2.3533,2.354,2.3546,2.355,2.357,2.3578,2.3487,2.3487,2.3487,0,0,2.3424,2.3424,2.3436,2.345,2.3452,2.347,2.3437,2.3457,2.347,2.3441,2.3467,2.3466,2.3469,2.3504,2.3518,2.3504,2.3575,2.3551,2.3556,2.3557,2.3575,2.3583,2.3591,2.349,2.349,2.3489,0,0,2.3483,2.3485,2.3512,2.3515,2.3519,2.3512,2.3519,2.3518,2.3515,2.3542,2.352,2.3535,2.356,2.3563,2.3568,2.3628,2.361,2.3633,2.3668,2.3687,2.3695,2.3701,2.3721,2.3728,2.3637,2.3637,2.3637,0,2.3516,2.3542,2.3528,2.355,2.3556,2.3531,2.3558,2.3562,2.3569,2.3574,2.3558,2.3588,2.3589,2.3623,2.3637,2.3642,2.3649,2.3632,2.3695,2.3701,2.3707,2.3725,2.3733,2.364,2.3639,2.3639,2.3639,0,2.3582,2.3601,2.3622,2.363,2.364,2.3664,2.3653,2.3664,2.3652,2.3647,2.3674,2.3674,2.3686,2.3693,2.3682,2.3726,2.3716,2.3698,2.3668,2.3718,2.3735,2.3743,2.3643,2.3643,2.3642,2.3641,0,0,2.3665,2.3665,2.3673,2.3676,2.3679,2.3693,2.3716,2.3727,2.3737,2.3743,2.3761,2.3783,2.3766,2.3771,2.376,2.3778,2.3824,2.3757,2.3757,2.3768,2.387,2.3883,2.3891,2.3813,2.3814,2.3815,2.3869,0,2.3721,2.376,2.3748,2.3788,2.3804,2.3781,2.3801,2.3804,2.38,2.3813,2.3808,2.3823,2.38,2.3803,2.382,2.3815,2.3844,2.3811,2.3828,2.3829,2.3826,2.3901,2.3914,2.3965,2.3876,2.3877,2.3878,0,2.3792,2.3801,2.3842,2.3841,2.3848,2.3866,2.3875,2.3888,2.3892,2.3887,2.3894,2.3879,2.3901,2.3873,2.3902,2.388,2.3887,2.3886,2.3887,2.3887,2.3855,2.3901,2.3981,2.3988,2.3889,2.3888,2.3887,0,2.3846,2.3869,2.3896,2.39,2.39,2.3913,2.3914,2.3916,2.3923,2.3932,2.3936,2.3947,2.3953,2.3961,2.395,2.3931,2.3981,2.3952,2.3977,2.3977,2.3987,2.3986,2.4068,2.3994,2.3994,2.3994,2.3994,0,2.3909,2.3935,2.392,2.3937,2.3965,2.3951,2.3979,2.3977,2.3979,2.3994,2.3975,2.399,2.3975,2.3988,2.3979,2.4004,2.4008,2.4004,2.4001,2.4005,2.4005,2.4007,2.4003,2.3996,2.3995,2.3995,2.3994,0,2.3974,2.3966,2.3993,2.3992,2.3992,2.4012,2.401,2.4025,2.402,2.404,2.4044,2.4035,2.405,2.404,2.4055,2.4049,2.4081,2.4074,2.408,2.4077,2.4102,2.4099,2.4187,2.4197,2.4118,2.4119,2.412,0,2.4014,2.4033,2.4033,2.4042,2.4044,2.4059,2.4067,2.4054,2.4062,2.4068,2.4082,2.4095,2.4105,2.4129,2.4124,2.4135,2.4127,2.4157,2.4128,2.4131,2.4126,2.4124,2.4125,2.4162,2.4163,2.4164,2.4165,0,2.4085,2.408,2.4092,2.4102,2.4112,2.412,2.4126,2.4134,2.4121,2.4132,2.4147,2.4154,2.4169,2.4182,2.4191,2.4191,2.4176,2.4174,2.418,2.4183,2.4185,2.4183,2.4094,2.4172,2.4171,2.417,2.417,2.417,2.4138,2.4153,2.4156,2.4169,2.4173,2.4179,2.4192,2.4189,2.4201,2.4212,2.4204,2.4221,2.4224,2.4235,2.4237,2.425,2.4237,2.4247,2.4249,2.4251,2.4253,2.4185,2.4252,2.4251,2.4251,2.4251,2.4251,0,2.4206,2.4207,2.422,2.4229,2.424,2.4225,2.4231,2.424,2.4256,2.426,2.427,2.4286,2.4299,2.4295,2.4306,2.4317,2.431,2.432,2.4318,2.4319,2.4265,2.4258,2.4326,2.4326,2.4326,2.4326,2.4326,2.4326,2.4244,2.4269,2.4264,2.429,2.4291,2.4307,2.4312,2.4317,2.432,2.434,2.435,2.4348,2.4348,2.4359,2.437,2.4368,2.4372,2.4385,2.4381,2.433,2.4322,2.4315,2.4309,2.4386,2.4386,2.4433,2.4434,2.4434]}]]